Flag for U.S.A. Weather past 2 weeks in Petersburg, Indiana, U.S.A.

Now
73 °F

Fog.


Feels Like: 70 °F
Forecast: 71 / 89 °F
Wind: 5 mph from North

Location: Lawrenceville-Vincennes International Airport

Current Time: Aug 28, 2014 at 5:14:10 AM

Latest Report: Aug 28, 2014 at 3:53 AM


Visibility: 5 mi

Pressure: 30.03 "Hg

Humidity: 94%

Dew point: 71 °F

Location of PetersburgLocation

Historic Weather in Petersburg — Graph

°F

Petersburg temperature yesterday

Maximum temperature yesterday: 91 °F (at 3:53 PM)
Minimum temperature yesterday: 71 °F (at 6:53 AM)
Average temperature yesterday: 80 °F

Past Weeks' High & Low Weather Summary

 TemperatureHumidityPressure
High93 °F (Aug 26, 4:53 PM)100% (Aug 19, 8:53 AM)30.11 "Hg (Aug 19, 8:53 AM)
Low57 °F (Aug 13, 4:53 AM)44% (Aug 13, 4:53 PM)29.78 "Hg (Aug 19, 4:53 PM)
Average76 °F83%29.97 "Hg
* Reported Aug 13 3:53 AM — Aug 28 3:53 AM, Petersburg, Weather by CustomWeather, © 2014

Note: Actual official high and low records may vary slightly from our data, if they occured in-between our weather recording intervals... More about our weather records

Advertising

Petersburg weather history for previous 24 hours

 ConditionsComfort  
Time TempWeatherWind HumidityBarometerVisibility
3:53 AM
Aug 28
73 °FFog.5 mph94%30.03 "Hg5 mi
2:53 AM73 °FClear.No wind94%30.03 "Hg7 mi
1:53 AM73 °FClear.6 mph94%30.03 "Hg8 mi
12:53 AM74 °FClear.5 mph94%30.04 "Hg8 mi
11:53 PM
Aug 27
75 °FClear.5 mph90%30.04 "Hg8 mi
10:53 PM77 °FClear.6 mph88%30.06 "Hg9 mi
9:53 PM78 °FClear.No wind84%30.04 "Hg10 mi
8:53 PM80 °FScattered clouds.3 mph74%30.04 "Hg10 mi
7:53 PM82 °FPassing clouds.7 mph70%30.02 "Hg10 mi
6:53 PM86 °FPassing clouds.6 mph70%30.01 "Hg9 mi
5:53 PM90 °FSunny.6 mph57%30.01 "Hg10 mi
4:53 PM91 °FSunny.7 mph56%30.03 "Hg10 mi
3:53 PM91 °FScattered clouds.8 mph61%30.04 "Hg8 mi
2:53 PM89 °FPassing clouds.8 mph68%30.05 "Hg7 mi
1:53 PM89 °FSunny.5 mph63%30.07 "Hg8 mi
12:53 PM87 °FPassing clouds.6 mph67%30.09 "Hg7 mi
11:53 AM86 °FSunny.No wind70%30.10 "Hg8 mi
10:53 AM83 °FSunny.5 mph74%30.10 "Hg8 mi
9:53 AM80 °FSunny.No wind79%30.08 "Hg7 mi
8:53 AM76 °FFog.No wind88%30.09 "Hg6 mi
7:53 AM72 °FFog.No wind93%30.09 "Hg4 mi
6:53 AM71 °FFog.No wind96%30.07 "Hg6 mi
5:53 AM72 °FFog.3 mph93%30.06 "Hg6 mi
Weather by CustomWeather, © 2014

See weather overviewHow to use our weather pages